Terminal Aerodrome Forecast
Issued by NWS Wilmington, OH

Current Version | Previous Version | Graphics & Text | Print | Product List | Glossary On
Versions: 1 2 3 4 5 6 7 8 9 10 11 12 13 14 15 16 17 18 19 20 21 22 23 24 25 26 27 28 29 30 31 32
000
FTUS41 KILN 142300
TAFILN
TAF
KILN 142330Z 1500/1524 21005KT P6SM OVC022
     FM150900 14007KT 5SM BR OVC025
     FM151700 14008KT P6SM SCT030 BKN250
     FM152300 14009KT P6SM -RA OVC050=

USA.gov is the U.S. government's official web portal to all federal, state and local government web resources and services.